Location: Unspecified
(41.1637°N, 24.2901°E)
Time: 06:32:38
(UTC+01:00)

ISS - Pass Details

Date: 08 December 2019
Orbit: 411 x 421 km, 51.6° (Epoch: 15 December)

Event Time Altitude Azimuth Distance (km) Brightness Sun altitude
Rises 16:50:33 0° 309° (NW) 2,359 0.5 -10.4°
Reaches altitude 10° 16:52:45 10° 319° (NW) 1,495 -0.7 -10.8°
Maximum altitude 16:55:53 35° 27° (NNE) 691 -3.0 -11.4°
Enters shadow 16:57:51 18° 85° (E) 1,085 -2.3 -11.7°
